Regional Weather Roundup
Issued by NWS New Orleans/Baton Rouge, LA

Home | Current Version | Previous Version | Text Only | Print | Product List | Glossary On
Versions: 1 2 3 4 5 6 7 8 9 10 11 12 13 14 15 16 17 18 19 20 21 22 23 24 25 26 27 28 29 30 31 32 33 34 35 36 37 38 39 40 41 42 43 44 45 46 47 48 49 50
000
ASUS44 KLIX 290313
RWRLIX
NEW ORLEANS REGIONAL WEATHER ROUNDUP
NATIONAL WEATHER SERVICE NEW ORLEANS LA
1000 PM CDT SUN MAY 28 2017

NOTE: "FAIR" INDICATES FEW OR NO CLOUDS BELOW 12,000 FEET WITH NO
      SIGNIFICANT WEATHER AND/OR OBSTRUCTIONS TO VISIBILITY.
      SKY/WX - SKY CONDITION AND SIGNIFICANT WEATHER.
      TMP - AIR TEMPERATURE.     DP    - DEWPOINT TEMPERATURE.
      RH  - RELATIVE HUMIDITY.   PRES  - PRESSURE.
      HI  - HEAT INDEX.          WCI   - WIND CHILL INDEX.

*  THESE STATIONS ARE NOT NWS OR FAA STATIONS AND ARE NOT UNDER
   NWS QUALITY CONTROL.

LAZ038-040-048-061>063-065>067-069-290400-
SOUTHEAST LOUISIANA

CITY           SKY/WX    TMP DP  RH WIND       PRES   REMARKS
N.O. INTL ARPT CLOUDY    78  74  87 W3        29.97R
N.O. LAKEFRONT MOCLDY    81  73  76 S3        29.98R
N.O. DOWNTOWN*   N/A     84  74  71 VRB3        N/A
RESERVE*       MOCLDY    81  74  78 CALM      29.97R
SLIDELL        PTCLDY    80  74  81 S3        29.97R
BATON ROUGE    CLOUDY    78  72  81 S3        29.99R
BOOTHVILLE     CLOUDY    80  78  94 S14G28    29.94R FOG
BELLE CHASSE   MOCLDY   N/A N/A N/A CALM      29.96R
BOGALUSA*      MOCLDY    80  73  79 CALM      29.99R
GALLIANO*      CLOUDY    78  73  83 CALM      29.94R
NEW ROADS*       N/A     74  73  94 W6        30.01R
GONZALES*        N/A     77  72  86 CALM      29.98R
HAMMOND*       PTCLDY    77  70  78 S6        29.96F
HOUMA*         NOT AVBL
PORT FOURCHON* CLEAR     81  75  83 S5        29.95R HAZE

$$

MSZ070-080>082-290400-
SOUTHERN MISSISSIPPI

CITY           SKY/WX    TMP DP  RH WIND       PRES   REMARKS
MCCOMB         CLOUDY    73  70  90 CALM      29.98R
GULFPORT       MOCLDY    81  76  84 SW6       29.98R
BILOXI         CLOUDY    80  76  87 SW14      29.98R
PASCAGOULA     MOCLDY    80  74  81 SW6       29.98R

$$

COASTAL OBSERVATIONS
LAKE AND NEARSHORE STATIONS

STATION/POSITION TIME  TEMP    WIND        PRES    WAVE
                       AIR SEA DIR/SP/G            HT/PER
                 (UTC) (F)     (DEG/KT/KT) (MB)    (FT/S)
PASCAGOULA       0248   80     230/ 10/ 14 1014.6
WAVELAND YACHT   0242   80 83  200/  7/ 10 1014.6
GRAND ISLE       0248   80 81  140/  6/ 10 1013.6
SOUTHWEST PASS   0248          140/ 12/ 19   N/A
NEW CANAL        0248   81 82  210/  3/  4 1014.9
SHELL BEACH      0242   80 84  200/  2/  5 1014.9

OFFSHORE STATIONS

STATION/POSITION TIME  TEMP    WIND        PRES    WAVE
                       AIR SEA DIR/SP/G            HT/PER
                 (UTC) (F)     (DEG/KT/KT) (MB)    (FT/S)
64 S DAUPHIN ISL 0250   80 80  180/ 17/ 21 1014.5    4/ 5

$$




USA.gov is the U.S. government's official web portal to all federal, state and local government web resources and services.